sat.trackr.live / text

‹ back to catalog

STARLINK-33847

NORAD 63685 · 2025-085X

PAYLOAD ACTIVE UNKNOWN

§ Identity

Operator
Country
US
Launch date
2025-04-28
Launch site
AFETR
Launch vehicle
Mass (kg)
RCS (m²)

Purposes: comms

External: N2YO · Heavens-Above · Gunter

§ Orbital elements

Epoch: 2026-09-20T07:20:47.725152Z

Period
94.27 min
Inclination
43.0019°
Eccentricity
0.0001399
Mean motion
15.27583501 rev/d
Perigee alt
482.1 km
Apogee alt
484.0 km
Semi-major
6,861.2 km
B*
4.4603e-4
RAAN
11.8473°
Arg perigee
245.4005°
Mean anomaly
114.6701°
Rev number
7,863

§ Raw data

STARLINK-338471 63685U 25085X   26263.30610793  .00012033  00000+0  44603-3 0  99942 63685  43.0019  11.8473 0001399 245.4005 114.6701 15.27583501 78634

JSON: /api/v1/satellites/63685 · /tle

For live sub-satellite position, see the globe view (requires WebGL).

§ Visibility from observer

Set your observer location to see the next 7 days of passes ≥ 10°. The values pass through the URL so the page stays shareable.

No JS? Fill the form by hand. The geolocation button needs JavaScript.